If you wish to contribute or participate in the discussions about articles you are invited to join SKYbrary as a registered user

Churchill Airport

From SKYbrary Wiki
CYYQ
Airport
ICAO: CYYQ
Summary
Name Churchill Airport
Region North America
Territory Canada CA.gif
Location Churchill, Manitoba
Serving
Coordinates 58° 44' 17.3328", -94° 4' 14.322"
Runways
Designator Length Width Surface ROPS
7/25 1219 m3,999.344 ft 30 m98.425 ft GVL /
15/33 2804 m9,199.475 ft 49 m160.761 ft ASP /
METAR
Observation CYYQ 180000Z 28012KT 4SM -SN OVC023 M12/M14 A2935 RMK SC8 SLP943
Station Churchill, Man.
Date/Time 18 November 2017 00:00:00
Wind direction 280°
Wind speed 12 kts
Lowest cloud amount overcast
Temperature
Dew point
Humidity 84%
QNH hPa
Weather condition light snow

BS
Tag(s) Bird Strike
Non Avian Wildlife Hazards to Aircraft
CFIT
Tag(s) Altimeter Temperature Error Correction
GND
Tag(s) Aircraft Ground De/Anti Icing
RE
Tag(s) Crosswind Landings
Landing on Contaminated Runways
WX
Tag(s) Fog

Churchill Airport

ICAO: CYYQ IATA: YYQ

Description

Airport serving Churchill, Manitoba.

Climatology

Subarctic climate (Köppen climate classification Dfc) - long, usually very cold winters, and short, cool to mild summers.

Note

Diversion airfield for commercial aircraft on Polar and NAT routes

Maps

Terrain

Loading map...

Airport Layout

Loading map...


Accidents & Serious Incidents at or in vicinity of CYYQ

None on SKYbrary